�������l�o���
Date,Time,MP-1(��Sv/h),MP-2(��Sv/h),MP-3(��Sv/h),MP-4(��Sv/h),MP-5(��Sv/h),MP-6(��Sv/h),MP-7(��Sv/h),MP-8(��Sv/h),����,����(m/s),���J
2022/11/29,00:00,0.568,0.821,0.518,1.038,0.718,0.333,0.585,0.553,��,11.6,��
2022/11/29,00:10,0.571,0.824,0.518,1.037,0.718,0.333,0.585,0.552,��쓌,12.4,��
2022/11/29,00:20,0.569,0.823,0.519,1.037,0.719,0.333,0.585,0.554,��쓌,11.3,��
2022/11/29,00:30,0.570,0.823,0.518,1.038,0.719,0.334,0.586,0.553,��쓌,11.8,��
2022/11/29,00:40,0.570,0.823,0.518,1.038,0.718,0.334,0.586,0.555,��,11.7,��
2022/11/29,00:50,0.568,0.822,0.518,1.037,0.718,0.331,0.586,0.554,��쓌,12.2,��
2022/11/29,01:00,0.570,0.820,0.519,1.038,0.719,0.334,0.586,0.554,��,10.3,��
2022/11/29,01:10,0.570,0.823,0.518,1.038,0.720,0.334,0.584,0.554,��,9.8,��
2022/11/29,01:20,0.569,0.824,0.520,1.038,0.719,0.334,0.584,0.555,��,8.6,��
2022/11/29,01:30,0.570,0.823,0.519,1.037,0.719,0.334,0.586,0.554,��,10.2,��
2022/11/29,01:40,0.570,0.821,0.521,1.039,0.719,0.332,0.585,0.555,��쐼,8.8,��
2022/11/29,01:50,0.568,0.823,0.518,1.040,0.719,0.333,0.586,0.553,��쐼,7.5,��
2022/11/29,02:00,0.568,0.821,0.518,1.039,0.718,0.333,0.585,0.555,��,7.3,��
2022/11/29,02:10,0.569,0.823,0.519,1.038,0.717,0.334,0.584,0.555,��,8.0,��
2022/11/29,02:20,0.571,0.821,0.519,1.038,0.717,0.333,0.586,0.554,��쐼,7.6,��
2022/11/29,02:30,0.569,0.823,0.520,1.037,0.717,0.333,0.584,0.554,��,11.1,��
2022/11/29,02:40,0.569,0.822,0.518,1.040,0.719,0.332,0.584,0.555,��,8.7,��
2022/11/29,02:50,0.568,0.822,0.520,1.040,0.718,0.332,0.585,0.555,��,8.3,��
2022/11/29,03:00,0.568,0.823,0.519,1.038,0.717,0.333,0.585,0.554,��,10.3,��
2022/11/29,03:10,0.568,0.822,0.521,1.036,0.718,0.333,0.585,0.556,��,6.9,��
2022/11/29,03:20,0.569,0.823,0.520,1.038,0.716,0.334,0.585,0.554,��,8.1,��
2022/11/29,03:30,0.567,0.821,0.519,1.038,0.717,0.333,0.586,0.555,��,8.8,��
2022/11/29,03:40,0.569,0.823,0.520,1.041,0.718,0.332,0.584,0.555,��,8.5,��
2022/11/29,03:50,0.568,0.822,0.517,1.039,0.717,0.332,0.586,0.553,��,8.6,��
2022/11/29,04:00,0.568,0.825,0.520,1.039,0.720,0.332,0.585,0.555,��,9.4,��
2022/11/29,04:10,0.570,0.825,0.519,1.039,0.719,0.333,0.585,0.555,��,8.6,��
2022/11/29,04:20,0.569,0.823,0.521,1.038,0.718,0.333,0.585,0.554,��,8.6,��
2022/11/29,04:30,0.568,0.824,0.520,1.040,0.718,0.334,0.585,0.553,��,9.3,��
2022/11/29,04:40,0.570,0.824,0.519,1.037,0.718,0.333,0.585,0.556,��,8.8,��
2022/11/29,04:50,0.569,0.823,0.520,1.040,0.718,0.333,0.586,0.556,��,9.9,��
2022/11/29,05:00,0.570,0.826,0.521,1.039,0.717,0.333,0.585,0.555,��쐼,9.4,��
2022/11/29,05:10,0.570,0.822,0.519,1.039,0.718,0.331,0.585,0.555,��쐼,8.6,��
2022/11/29,05:20,0.571,0.824,0.519,1.040,0.716,0.333,0.585,0.556,��쐼,8.9,��
2022/11/29,05:30,0.571,0.822,0.519,1.039,0.718,0.332,0.586,0.555,��쐼,9.0,��
2022/11/29,05:40,0.571,0.823,0.518,1.039,0.716,0.333,0.586,0.555,��쐼,8.3,��
2022/11/29,05:50,0.568,0.823,0.521,1.038,0.719,0.333,0.585,0.555,��쐼,10.3,��
2022/11/29,06:00,0.571,0.822,0.520,1.040,0.717,0.333,0.585,0.555,��쐼,8.9,��
2022/11/29,06:10,0.570,0.824,0.520,1.041,0.717,0.333,0.584,0.555,��쐼,8.7,��
2022/11/29,06:20,0.569,0.823,0.519,1.039,0.716,0.333,0.584,0.555,��,10.6,��
2022/11/29,06:30,0.569,0.823,0.519,1.038,0.717,0.333,0.585,0.555,��쐼,9.4,��
2022/11/29,06:40,0.571,0.822,0.519,1.037,0.718,0.333,0.587,0.557,��쐼,9.6,��
2022/11/29,06:50,0.570,0.825,0.519,1.038,0.719,0.332,0.585,0.556,��쐼,8.8,��
2022/11/29,07:00,0.569,0.822,0.520,1.041,0.719,0.333,0.586,0.555,��쐼,9.1,��
2022/11/29,07:10,0.570,0.820,0.519,1.039,0.716,0.332,0.585,0.555,��쐼,8.5,��
2022/11/29,07:20,0.570,0.821,0.520,1.039,0.717,0.331,0.585,0.555,��쐼,8.5,��
2022/11/29,07:30,0.570,0.821,0.521,1.041,0.719,0.332,0.586,0.555,��쐼,10.3,��
2022/11/29,07:40,0.569,0.822,0.520,1.041,0.717,0.333,0.584,0.554,��쐼,10.3,��
2022/11/29,07:50,0.570,0.819,0.520,1.041,0.718,0.331,0.585,0.554,��,11.3,��
2022/11/29,08:00,0.569,0.820,0.518,1.038,0.719,0.333,0.585,0.554,��,10.9,��
2022/11/29,08:10,0.571,0.821,0.519,1.041,0.718,0.332,0.585,0.554,��,10.7,��
2022/11/29,08:20,0.571,0.819,0.519,1.040,0.717,0.332,0.587,0.554,��쐼,8.6,��
2022/11/29,08:30,0.568,0.817,0.519,1.041,0.716,0.333,0.585,0.555,��,13.0,��
2022/11/29,08:40,0.570,0.817,0.520,1.037,0.719,0.332,0.587,0.556,��,9.9,��
2022/11/29,08:50,0.570,0.816,0.518,1.042,0.717,0.332,0.586,0.555,��쐼,7.6,��
2022/11/29,09:00,0.571,0.820,0.517,1.042,0.719,0.332,0.587,0.555,��,9.7,��
2022/11/29,09:10,0.569,0.818,0.518,1.038,0.720,0.331,0.585,0.555,��,8.9,��
2022/11/29,09:20,0.571,0.819,0.516,1.042,0.719,0.332,0.586,0.555,��,9.3,��
2022/11/29,09:30,0.570,0.819,0.516,1.041,0.720,0.333,0.585,0.553,��,8.9,��
2022/11/29,09:40,0.570,0.821,0.516,1.042,0.719,0.332,0.585,0.554,��,9.0,��
2022/11/29,09:50,0.568,0.818,0.516,1.043,0.719,0.332,0.585,0.553,��,10.2,��
2022/11/29,10:00,0.570,0.820,0.519,1.043,0.718,0.333,0.585,0.554,��,9.8,��
2022/11/29,10:10,0.569,0.818,0.517,1.042,0.719,0.332,0.586,0.553,��,11.8,��
2022/11/29,10:20,0.572,0.819,0.516,1.040,0.719,0.332,0.586,0.555,��,10.2,��
2022/11/29,10:30,0.571,0.821,0.518,1.044,0.719,0.334,0.585,0.553,��,10.0,��
2022/11/29,10:40,0.570,0.820,0.519,1.042,0.719,0.334,0.586,0.555,��,8.3,��
2022/11/29,10:50,0.572,0.820,0.518,1.042,0.719,0.333,0.587,0.553,��,10.2,��
2022/11/29,11:00,0.573,0.819,0.520,1.042,0.721,0.333,0.587,0.555,��쐼,10.7,��
2022/11/29,11:10,0.571,0.820,0.518,1.039,0.719,0.334,0.588,0.553,��,8.7,��
2022/11/29,11:20,0.572,0.822,0.519,1.043,0.720,0.334,0.588,0.554,��,7.3,��
2022/11/29,11:30,0.573,0.820,0.521,1.041,0.719,0.334,0.587,0.554,��,10.6,��
2022/11/29,11:40,0.574,0.822,0.519,1.043,0.716,0.334,0.587,0.554,��쐼,8.8,��
2022/11/29,11:50,0.574,0.821,0.519,1.040,0.720,0.334,0.587,0.553,��쐼,10.5,��
2022/11/29,12:00,0.573,0.822,0.520,1.042,0.719,0.333,0.587,0.553,��쐼,9.9,��
2022/11/29,12:10,0.573,0.822,0.520,1.041,0.719,0.333,0.588,0.554,��,11.6,��
2022/11/29,12:20,0.574,0.822,0.520,1.041,0.721,0.335,0.588,0.553,��쐼,7.3,��
2022/11/29,12:30,0.575,0.823,0.520,1.040,0.720,0.334,0.589,0.555,��쐼,9.6,��
2022/11/29,12:40,0.573,0.823,0.520,1.042,0.721,0.335,0.589,0.553,��,10.2,��
2022/11/29,12:50,0.573,0.822,0.519,1.042,0.718,0.334,0.589,0.554,��,11.4,��
2022/11/29,13:00,0.574,0.820,0.519,1.042,0.721,0.334,0.588,0.555,��,9.5,��
2022/11/29,13:10,0.575,0.823,0.520,1.040,0.719,0.336,0.588,0.553,��쐼,9.3,��
2022/11/29,13:20,0.574,0.824,0.518,1.041,0.719,0.334,0.589,0.554,��,9.3,��
2022/11/29,13:30,0.573,0.820,0.520,1.041,0.720,0.334,0.588,0.555,��,10.2,��
2022/11/29,13:40,0.574,0.823,0.519,1.041,0.721,0.335,0.589,0.554,��,8.7,��
2022/11/29,13:50,0.574,0.821,0.519,1.041,0.722,0.334,0.588,0.555,��,11.4,��
2022/11/29,14:00,0.573,0.821,0.519,1.042,0.719,0.334,0.588,0.553,��,9.5,��
2022/11/29,14:10,0.575,0.822,0.520,1.042,0.722,0.333,0.587,0.555,��쐼,10.9,��
2022/11/29,14:20,0.575,0.822,0.520,1.039,0.721,0.333,0.588,0.555,��,12.7,��
2022/11/29,14:30,0.574,0.823,0.520,1.040,0.721,0.334,0.588,0.554,��,9.5,��
2022/11/29,14:40,0.574,0.822,0.521,1.042,0.720,0.333,0.587,0.554,��쐼,10.2,��
2022/11/29,14:50,0.574,0.822,0.520,1.042,0.718,0.334,0.587,0.554,��쐼,10.2,��
2022/11/29,15:00,0.572,0.823,0.519,1.044,0.720,0.333,0.587,0.554,��쐼,9.0,��
2022/11/29,15:10,0.572,0.823,0.520,1.044,0.721,0.335,0.587,0.554,��,9.1,��
2022/11/29,15:20,0.574,0.822,0.521,1.043,0.718,0.334,0.588,0.554,��쐼,9.0,��
2022/11/29,15:30,0.574,0.823,0.521,1.044,0.720,0.333,0.589,0.555,��,10.5,��
2022/11/29,15:40,0.572,0.824,0.519,1.044,0.720,0.334,0.589,0.556,��,9.5,��
2022/11/29,15:50,0.574,0.823,0.521,1.044,0.720,0.333,0.588,0.555,��,9.3,��
2022/11/29,16:00,0.573,0.825,0.521,1.044,0.721,0.334,0.586,0.556,��,9.4,��
2022/11/29,16:10,0.572,0.823,0.522,1.044,0.719,0.333,0.589,0.555,��,9.3,�L
2022/11/29,16:20,0.573,0.824,0.521,1.043,0.720,0.334,0.587,0.555,��,10.3,�L
2022/11/29,16:30,0.573,0.824,0.520,1.044,0.722,0.334,0.586,0.554,��,10.7,��
2022/11/29,16:40,0.573,0.825,0.521,1.046,0.722,0.336,0.588,0.556,��,11.6,��
2022/11/29,16:50,0.572,0.824,0.519,1.042,0.720,0.333,0.588,0.555,��,12.0,��
2022/11/29,17:00,0.572,0.824,0.520,1.042,0.720,0.333,0.587,0.555,��,9.4,�L
2022/11/29,17:10,0.574,0.826,0.519,1.043,0.721,0.334,0.588,0.556,��,8.9,�L
2022/11/29,17:20,0.575,0.826,0.523,1.044,0.722,0.336,0.588,0.555,��,9.8,�L
2022/11/29,17:30,0.576,0.825,0.521,1.043,0.722,0.335,0.588,0.557,��,9.8,�L
2022/11/29,17:40,0.574,0.823,0.522,1.046,0.722,0.337,0.588,0.554,��,9.8,�L
2022/11/29,17:50,0.575,0.824,0.523,1.047,0.723,0.336,0.586,0.555,��,10.3,�L
2022/11/29,18:00,0.574,0.825,0.524,1.046,0.721,0.336,0.588,0.555,��,10.2,�L
2022/11/29,18:10,0.577,0.827,0.523,1.045,0.720,0.336,0.589,0.553,��,9.9,�L
2022/11/29,18:20,0.575,0.825,0.525,1.044,0.721,0.336,0.590,0.556,��,10.0,��
2022/11/29,18:30,0.575,0.826,0.522,1.045,0.721,0.337,0.588,0.556,��,9.8,��
2022/11/29,18:40,0.574,0.826,0.523,1.045,0.719,0.338,0.589,0.556,��쓌,9.6,��
2022/11/29,18:50,0.574,0.826,0.521,1.044,0.722,0.336,0.588,0.556,��쓌,9.3,��
2022/11/29,19:00,0.575,0.824,0.520,1.045,0.721,0.335,0.588,0.556,��,9.2,��
2022/11/29,19:10,0.574,0.824,0.521,1.045,0.720,0.336,0.590,0.555,��,9.8,��
2022/11/29,19:20,0.572,0.824,0.520,1.045,0.720,0.335,0.588,0.555,��,6.6,��
2022/11/29,19:30,0.574,0.823,0.519,1.045,0.720,0.335,0.588,0.556,��,10.5,��
2022/11/29,19:40,0.574,0.823,0.520,1.043,0.719,0.335,0.590,0.555,��,11.3,�L
2022/11/29,19:50,0.575,0.825,0.520,1.043,0.720,0.335,0.589,0.554,��,10.2,��
2022/11/29,20:00,0.573,0.822,0.521,1.044,0.720,0.334,0.586,0.555,��,10.6,�L
2022/11/29,20:10,0.575,0.823,0.520,1.043,0.720,0.335,0.588,0.555,��,11.7,�L
2022/11/29,20:20,0.573,0.822,0.521,1.045,0.719,0.335,0.589,0.555,��,10.8,�L
2022/11/29,20:30,0.572,0.823,0.519,1.044,0.719,0.336,0.589,0.555,��,10.9,�L
2022/11/29,20:40,0.574,0.825,0.520,1.043,0.719,0.334,0.589,0.554,��,12.0,�L
2022/11/29,20:50,0.573,0.823,0.520,1.046,0.722,0.335,0.589,0.556,��,10.5,�L
2022/11/29,21:00,0.574,0.824,0.522,1.045,0.721,0.335,0.589,0.555,��,8.3,�L
2022/11/29,21:10,0.576,0.824,0.520,1.046,0.720,0.335,0.588,0.555,��,10.9,�L
2022/11/29,21:20,0.572,0.823,0.523,1.045,0.720,0.334,0.588,0.556,��,10.5,�L
2022/11/29,21:30,0.574,0.825,0.523,1.045,0.721,0.336,0.590,0.555,��,10.0,�L
2022/11/29,21:40,0.575,0.824,0.523,1.045,0.721,0.336,0.590,0.554,��,7.8,�L
2022/11/29,21:50,0.575,0.825,0.523,1.044,0.721,0.336,0.589,0.554,��,9.4,�L
2022/11/29,22:00,0.576,0.827,0.524,1.045,0.724,0.337,0.590,0.557,��,9.1,�L
2022/11/29,22:10,0.575,0.827,0.525,1.046,0.723,0.339,0.589,0.557,��,9.5,�L
2022/11/29,22:20,0.577,0.827,0.526,1.044,0.723,0.339,0.589,0.556,��,9.2,�L
2022/11/29,22:30,0.576,0.828,0.525,1.046,0.723,0.337,0.590,0.556,��,7.7,�L
2022/11/29,22:40,0.575,0.826,0.525,1.047,0.723,0.338,0.589,0.556,��,7.6,�L
2022/11/29,22:50,0.577,0.826,0.524,1.046,0.722,0.338,0.588,0.556,��,7.4,�L
2022/11/29,23:00,0.574,0.829,0.525,1.046,0.723,0.337,0.589,0.556,��,7.1,�L
2022/11/29,23:10,0.577,0.828,0.524,1.043,0.723,0.337,0.587,0.555,��,6.1,�L
2022/11/29,23:20,0.577,0.826,0.525,1.045,0.721,0.338,0.589,0.557,��,5.3,�L
2022/11/29,23:30,0.575,0.829,0.523,1.044,0.721,0.337,0.588,0.555,��,5.6,�L
2022/11/29,23:40,0.576,0.825,0.522,1.042,0.720,0.336,0.589,0.556,��,5.5,�L
2022/11/29,23:50,0.577,0.825,0.524,1.043,0.720,0.337,0.589,0.554,��,4.8,�L
